This is the latest recevied weather packets stored in our database for station/object KD8PH. If no packets are shown the sender has not sent any weather packets the latest 10 day(s).
| Time | Temp. | Humidity | Pressure | Rain* | Wind** | Luminosity | Snow |
|---|---|---|---|---|---|---|---|
| 1777770939 | 15.56° C | 56% | 1014.5 hPa | 0 mm | - | - | - |
| 1777770340 | 16.11° C | 55% | 1014.4 hPa | 0 mm | - | - | - |
| 1777769746 | 16.11° C | 49% | 1014.3 hPa | 0 mm | - | - | - |
| 1777769141 | 16.67° C | 49% | 1014.2 hPa | 0 mm | - | - | - |
| 1777768545 | 17.22° C | 50% | 1014.1 hPa | 0 mm | - | - | - |
| 1777767943 | 17.22° C | 48% | 1014 hPa | 0 mm | - | - | - |
| 1777767339 | 17.78° C | 47% | 1013.9 hPa | 0 mm | - | - | - |
| 1777766738 | 17.78° C | 46% | 1013.7 hPa | 0 mm | - | - | - |
| 1777766148 | 18.33° C | 49% | 1013.6 hPa | 0 mm | - | - | - |
| 1777765534 | 18.33° C | 44% | 1013.4 hPa | 0 mm | - | - | - |
| 1777764948 | 18.33° C | 44% | 1013.4 hPa | 0 mm | - | - | - |
| 1777764351 | 18.33° C | 40% | 1013.5 hPa | 0 mm | - | - | - |
| 1777763746 | 18.33° C | 38% | 1013.4 hPa | 0 mm | - | - | - |
| 1777763147 | 18.89° C | 38% | 1013.4 hPa | 0 mm | - | - | - |
| 1777762542 | 18.89° C | 38% | 1013.3 hPa | 0 mm | - | - | - |
| 1777761945 | 18.89° C | 41% | 1013.4 hPa | 0 mm | - | - | - |
| 1777761342 | 18.89° C | 36% | 1013.3 hPa | 0 mm | - | - | - |
| 1777760752 | 19.44° C | 38% | 1013.5 hPa | 0 mm | - | - | - |
| 1777760138 | 18.89° C | 37% | 1013.4 hPa | 0 mm | - | - | - |
| 1777759543 | 19.44° C | 36% | 1013.3 hPa | 0 mm | - | - | - |
| 1777758941 | 19.44° C | 39% | 1013.3 hPa | 0 mm | - | - | - |
| 1777758334 | 19.44° C | 36% | 1013.2 hPa | 0 mm | - | - | - |
| 1777757746 | 18.89° C | 36% | 1013.2 hPa | 0 mm | - | - | - |
| 1777757152 | 19.44° C | 35% | 1013.1 hPa | 0 mm | - | - | - |
| 1777756535 | 19.44° C | 35% | 1013 hPa | 0 mm | - | - | - |
* Rain latest hour (hover to see other rain measurements)
** Current wind speed in m/s (hover to see current wind gust speed)